Aérodrome :
LOGIN :

S'inscrire | Disclaimer

   EN    FR    IT 

 










Légende :    VFR   VFR Marginal   IFR   IFR Intensif   IFR Très Intensif
Visi : 
Plafond : 
>= 8 km
>= 3000ft
5 à 8 km
1000 à 3000 ft
1500m à 5 km
500 à 1000 ft
800 à 1500m
200 à 500 ft
< 800m
< 200 ft
Symboles :   Orages  Brouillard  Fortes neiges  Fortes précipitations  Vent > 20 kt
SIGMETs :   Divers  Orages  Givrage  Turbulence  Onde Orograph.  Cendres Volcan.






- Altitude de l'aérodrome : 336 ft
- Code IATA : GCI


EGJB - Guernsey

DERNIER METAR :
  • 021950Z 31008KT CAVOK 16/10 Q1016

METARs EXPIRÉS :
  • 021850Z 32008KT CAVOK 17/10 Q1016
  • 021820Z 33008KT CAVOK 18/10 Q1016
  • 021750Z 33007KT CAVOK 19/10 Q1016

TAF TAF EGJB
Valide du 02 à 21h jusqu'au 03 à 06h UTC


022001Z 0221/0306 32005KT CAVOK
ATIS : +44 1481 238 957



MET'MAP, la Météo Aéronautique d'un coup d'oeil ! - Copyright ORBIFLY Décembre 2007 - Disclaimer

ORBIFLY MET'MAP TEAM :

Programmation & Développement : Alexandra Zaïnal
Sur une idée originale de : Baudouin d'Aumeries
Assistance à la programmation : Marc-Olivier Méhu
Soutien technique & logistique : Manuel Goepfert

Contact : metmap@orbifly.com




SOURCES & CREDITS :

   NOAA